< < Back
Terminal Aerodrome Forecast


Current Version              Previous Versions:   1  2  3  4  5  6  7  8  9  

Terminal Aerodrome Forecast

107
FTUS42 KJAX 250542
TAFJAX
TAF
KJAX 250542Z 2506/2606 18005KT P6SM SKC
     FM250800 VRB04KT P6SM SKC
     FM251600 12007KT P6SM SCT050 SCT250
     FM251900 12012KT P6SM SCT060
     FM260100 VRB04KT P6SM FEW250=

Latest METAR

639
SAUS80 KWBC 260200 CCA
MTRJAX
METAR KJAX 260156Z 17008KT 10SM FEW120 28/23 A3005 RMK AO2 SLP174
T02780228


USA.gov is the U.S. government's official web portal to all federal, state and local government web resources and services.